Location: ??????
(41.3794°N, 22.5014°E)
Time: 08:25:39
(UTC+00:00)

CZ-4 R/B - Pass Details

Date: 30 November 2020
Orbit: 533 x 597 km, 97.7° (Epoch: 17 January)

Event Time Altitude Azimuth Distance (km) Brightness Sun altitude
Rises 15:58:43 0° 125° (SE) 2,714 4.5 -10.6°
Enters shadow 15:58:44 - 125° (SE) 2,707 4.5 -10.6°
Exits shadow 16:04:52 15° 48° (NE) 1,560 3.1 -11.7°
Drops below altitude 10° 16:06:26 10° 27° (NNE) 1,871 3.6 -12.0°
Sets 16:09:15 0° 6° (N) 2,788 4.7 -12.5°
